Location: Gettysburg
(39.8310°N, 77.2310°W)
Time: 08:20:38
(UTC-05:00)

ATLAS 2AS CENTAUR R/B - Visible Passes

Search period start: 24 January 2017 00:00
Search period end: 03 February 2017 00:00
Orbit: 904 x 1308 km, 63.7° (Epoch: 22 January)

Date Brightness Start Highest point End Pass type
(mag) Time Alt. Az. Time Alt. Az. Time Alt. Az.
24 Jan 5.5 02:35:41 11° NNE 02:35:41 11° NNE 02:36:35 10° NNE visible
24 Jan 4.6 04:23:08 17° N 04:27:42 26° NE 04:34:02 10° E visible
24 Jan 3.0 06:11:44 10° NNW 06:19:51 90° ENE 06:27:20 10° SSE visible
25 Jan 4.9 03:40:01 18° N 03:42:09 20° NNE 03:47:42 10° ENE visible
25 Jan 3.4 05:27:29 12° NNW 05:34:57 62° NE 05:42:23 10° SE visible
25 Jan 4.8 19:19:55 10° SSE 19:20:12 11° SE 19:20:12 11° SE visible
25 Jan 5.1 21:07:18 10° SSW 21:07:44 12° SSW 21:07:44 12° SSW visible
26 Jan 5.2 02:56:59 16° NNE 02:56:59 16° NNE 03:01:03 10° ENE visible
26 Jan 3.9 04:44:27 19° NNW 04:49:51 44° NE 04:57:02 10° ESE visible
26 Jan 3.3 06:33:24 10° NW 06:40:57 47° WSW 06:47:56 10° S visible
26 Jan 4.2 20:22:44 10° SSW 20:25:39 27° S 20:25:39 27° S visible
27 Jan 5.6 02:14:02 10° NE 02:14:02 10° NE 02:14:14 10° NE visible
27 Jan 4.4 04:01:30 25° N 04:04:34 32° NE 04:11:17 10° E visible
27 Jan 2.9 05:48:58 13° NW 05:56:20 73° WSW 06:03:43 10° SSE visible
27 Jan 3.6 19:38:39 10° S 19:43:37 36° SE 19:43:37 36° SE visible
27 Jan 4.9 21:29:04 10° WSW 21:31:10 20° WSW 21:31:10 20° WSW visible
28 Jan 4.7 03:18:40 23° NNE 03:19:07 24° NNE 03:25:09 10° E visible
28 Jan 3.1 05:06:08 23° NNW 05:11:31 78° NE 05:19:00 10° SE visible
28 Jan 3.8 18:55:11 10° SSE 19:01:08 26° ESE 19:01:37 26° E visible
28 Jan 3.6 20:43:51 10° SW 20:49:09 49° WSW 20:49:09 49° WSW visible
29 Jan 5.2 02:35:56 16° NE 02:35:56 16° NE 02:38:41 10° ENE visible
29 Jan 3.5 04:23:26 36° N 04:26:33 54° NE 04:33:54 10° SE visible
29 Jan 3.5 06:10:55 13° NW 06:17:16 36° WSW 06:23:51 10° S visible
29 Jan 4.4 18:12:48 10° SE 18:16:51 15° ESE 18:19:35 13° E visible
29 Jan 2.8 19:59:02 10° SSW 20:06:34 81° ESE 20:07:07 76° ENE visible
29 Jan 5.0 21:51:53 10° W 21:54:39 20° W 21:54:39 20° W visible
30 Jan 4.1 03:40:51 38° NE 03:41:22 38° NE 03:48:24 10° ESE visible
30 Jan 3.0 05:28:21 27° NW 05:32:45 57° WSW 05:39:56 10° SSE visible
30 Jan 3.1 19:14:39 10° S 19:21:53 54° ESE 19:25:01 35° ENE visible
30 Jan 4.1 21:06:01 10° WSW 21:12:33 39° NW 21:12:33 39° NW visible
31 Jan 4.8 02:58:25 24° ENE 02:58:25 24° ENE 03:02:29 10° E visible
31 Jan 2.8 04:45:55 54° NW 04:48:03 85° WSW 04:55:30 10° SSE visible
31 Jan 4.3 06:33:26 10° WNW 06:37:48 16° WSW 06:42:04 10° SW visible
31 Jan 3.6 18:30:48 10° S 18:37:22 34° ESE 18:42:51 16° NE visible
31 Jan 3.5 20:20:33 10° SW 20:28:03 57° NW 20:30:22 43° N visible
31 Jan 5.3 22:15:38 10° WNW 22:17:54 15° NW 22:17:54 15° NW visible
01 Feb 5.5 02:16:06 10° ENE 02:16:06 10° ENE 02:16:12 10° ENE visible
01 Feb 3.2 04:03:38 65° ENE 04:03:38 65° ENE 04:10:38 10° SE visible
01 Feb 3.8 05:51:09 23° W 05:53:32 27° WSW 05:59:31 10° SSW visible
01 Feb 4.1 17:47:41 10° SSE 17:53:02 21° ESE 17:58:37 10° ENE visible
01 Feb 3.0 19:35:29 10° SW 19:43:05 81° NW 19:48:04 26° NNE visible
01 Feb 4.7 21:29:11 10° W 21:35:24 25° NNW 21:35:34 25° NNW visible
02 Feb 4.4 03:21:26 31° E 03:21:26 31° E 03:25:21 10° ESE visible
02 Feb 3.2 05:08:58 44° WSW 05:09:07 44° WSW 05:15:58 10° S visible
02 Feb 3.0 18:50:51 10° SSW 18:58:18 69° ESE 19:05:37 13° NE visible
02 Feb 4.3 20:43:05 10° WSW 20:49:58 33° NW 20:53:07 25° N visible
02 Feb 5.5 22:40:04 10° NW 22:40:37 11° NW 22:40:37 11° NW visible
